Showing default

CANX-4, 40055

Orbit data source: Space-Track

CANX-4, 40055 is a payload satellite owned by UTIAS-SFL (CA) in SSO that was launched on Mon, 30 Jun 2014 UTC via a PSLV launch vehicle from the Sirharikota (SRI). Payload-class satellites include a variety of spacecraft equipped with specific instruments for various scientific and technological missions. These include communications satellites like Starlink; space stations such as the ISS; scientific satellites like the Hubble; Earth observation satellites from companies like Planet Labs, Umbra, and HawkEye 360; GPS; miniature CubeSats for education and research; and military/defense satellites.

Loading next visibility...
Identifier
40055, 2014-034C
Orbit
SSO
Last TLE update
5 hours ago
Origin
Manufacturer
UTIAS-SFL
Mission
Operational Amateur Technology
Bus & Motor
GNB, Unknown motor
Mass
7 kg wet, 7 kg dry
Launch date (UTC)
2014-06-30 (11 years ago)
Launch vehicle
PSLV
Launch site
Sirharikota (SRI)
Object type
Payload
Rocket body
Debris
Shape & HBR
Box + 4 Ant, 0.2 m
Radar Cross Section
0.060 m², Medium (>0.1 m² and < 1m²)

Expand to show TLE details & history

TLE from 5 hours ago
0 CANX-4
1 40055U 14034C   25189.14340488  .00000749  00000-0  10578-3 0  9997
2 40055  98.3597  46.0424 0013868  40.4852 319.7388 14.80271932593649
Epoch: 2025-07-08T03:26Z
TLE epoch observation values (Epoch: 2025-07-08T03:26:30.181Z)
Latitude
-0.00002°
Longitude
68.07403°
Altitude
624.063 km
Speed
7.551 km/s
True Right ascension
03h 04m 10s
True Declination
0° 00' 00"
Sunlit
Object was in daylight at epoch
Visualization orbit readout
Latitude
25.43787°
Longitude
64.30392°
Altitude
622.197 km
Speed
7.555 km/s
Apparent Right ascension
05h 13m 18s
Apparent Declination
-7° 25' 11"
Sunlit
Object is in daylight
Visualization observer readout
Local Sidereal Time
20:31:07
Azimuth
67.343° ENE
Elevation
-35.257°
Doppler factor
1
Orbital elements
Apogee altitude
635.24 km
Perigee altitude
615.815 km
Semi-major axis
7,003.665 km
Eccentricity
0.00139
Inclination
98.3597°
RAAN
46.0424°
Arg. of periapsis
40.4852°
True anomaly
Unknown
Mean anomaly
319.7388°
Eccentric anomaly
Unknown
Mean motion
3.70301 °/min
Orbital period
97.22 mins
BSTAR
0.00010578
Loading maneuver chart data...
Loading SW <> Apogee altitude chart data...
Loading historical data...
Loading historical data...
Loading historical data...
Loading historical data...
Loading historical data...
Loading historical data...
Loading historical data...
Other satellites on launch #34 in the year 2014 (2014-06-30 UTC)

CANX-4 Visibility forecast

Observer location: undefined°, undefined°

Span
Click to sort rows by Start time (UTC) header in descending order
Start Az.
Max El. time (UTC)
Max El. Az.
Max El.
End time (UTC)
End Az.
4 mins2025-07-08 13:20:24.911Z97.958° ESE2025-07-08 13:22:24.911Z67.724° E15.794°2025-07-08 13:24:24.911Z36.018° NE
7 mins2025-07-08 14:55:24.911Z194.21° SSW2025-07-08 14:58:24.911Z258.895° W34.361°2025-07-08 15:02:24.911Z332.328° NNW
6 mins2025-07-09 02:44:24.911Z42.645° NE2025-07-09 02:47:24.911Z101.877° ESE27.357°2025-07-09 02:50:24.911Z155.174° SSE
5 mins2025-07-09 04:21:24.911Z327.488° NNW2025-07-09 04:23:24.911Z290.47° WNW20.934°2025-07-09 04:26:24.911Z244.064° WSW
|